Sisseton, SD

12:49 PM CDT on October 23, 2017 (GMT -0500)
Sisseton

Weather History for K8D3 - February, 2012

Change the Weather History Date:

Monday, February 6, 2012

  Actual Average Record
Temperature  
Mean Temperature 29 °F 15 °F  
Max Temperature 38 °F 25 °F 57 °F (1987)
Min Temperature 20 °F 5 °F -30 °F (1936)
Degree Days  
Heating Degree Days 36 50  
Month to date heating degree days 211 302  
Since 1 July heating degree days 4290 5248  
Cooling Degree Days 0 0  
Month to date cooling degree days 0 0  
Year to date cooling degree days 0 0  
Moisture  
Dew Point 23 °F    
Average Humidity 70    
Maximum Humidity 88    
Minimum Humidity 52    
Precipitation  
Precipitation 0.00 in 0.01 in 0.52 in (1946)
Month to date precipitation 0.00 0.06  
Year to date precipitation 0.48 0.49  
Snow  
Snow 0.00 in - - ()
Month to date snowfall 0.0  
Since 1 July snowfall 4.8  
Snow Depth 0.00 in    
Sea Level Pressure  
Sea Level Pressure 30.24 in    
Wind  
Wind Speed 18 mph (NNW)    
Max Wind Speed 28 mph    
Max Gust Speed 33 mph    
T = Trace of Precipitation, MM = Missing Value Source: NWS Daily Summary

Daily Weather History Graph

Daily Weather History Graph

Search for Another Location

Airport or City:

Trip Planner

Search our weather history database for the weather conditions in past years. The results will help you decide how hot, cold, wet, or windy it might be!

Date:

Astronomy

Feb. 06, 2012 Rise Set
Actual Time 7:43 AM CST 5:40 PM CST
Civil Twilight 7:12 AM CST 6:12 PM CST
Nautical Twilight 6:37 AM CST 6:47 PM CST
Astronomical Twilight 6:02 AM CST 7:22 PM CST
Moon 4:45 PM CST (2/6) 6:37 AM CST (2/6)
Length of Visible Light 10h 59m
Length of Day
9h 57m
Waxing Gibbous, 98% of the Moon is Illuminated
Feb 6
Waxing Gibbous
Feb 7
Full
Feb 14
Last Quarter
Feb 21
New
Feb 29
First Quarter

Hourly Weather History & Observations

Time (CST) Temp. Windchill Dew Point Humidity Pressure Visibility Wind Dir Wind Speed Gust Speed Precip Events Conditions
12:56 AM 36.0 °F 26.7 °F 26.1 °F 67% 30.14 in - West 15.0 mph - N/A   Unknown
1:56 AM 35.1 °F 25.5 °F 26.1 °F 70% 30.13 in - West 15.0 mph - N/A   Unknown
2:56 AM 35.1 °F 24.8 °F 25.0 °F 67% 30.12 in - West 17.3 mph 23.0 mph N/A   Unknown
3:56 AM 36.0 °F 27.1 °F 23.0 °F 59% 30.07 in - West 13.8 mph 23.0 mph N/A   Unknown
4:56 AM 37.0 °F 28.9 °F 21.9 °F 54% 30.09 in - WNW 12.7 mph 23.0 mph N/A   Unknown
5:56 AM 35.1 °F 26.9 °F 21.9 °F 59% 30.09 in - WNW 11.5 mph - N/A   Unknown
6:56 AM 30.9 °F 22.8 °F 21.9 °F 69% 30.12 in - WNW 9.2 mph - N/A   Unknown
7:56 AM 28.0 °F 20.0 °F 21.0 °F 75% 30.14 in - NW 8.1 mph - N/A   Unknown
8:56 AM 30.0 °F 23.2 °F 23.0 °F 75% 30.15 in - North 6.9 mph - N/A   Unknown
9:56 AM 33.1 °F 22.2 °F 24.1 °F 70% 30.17 in - North 17.3 mph 24.2 mph N/A   Unknown
10:56 AM 33.1 °F 22.6 °F 26.1 °F 75% 30.19 in - North 16.1 mph - N/A   Unknown
11:56 AM 36.0 °F 26.0 °F 26.1 °F 67% 30.20 in - North 17.3 mph - N/A   Unknown
12:56 PM 35.1 °F 23.8 °F 26.1 °F 70% 30.21 in - North 20.7 mph 27.6 mph N/A   Unknown
1:56 PM 32.0 °F 19.5 °F 25.0 °F 75% 30.23 in - North 21.9 mph 27.6 mph N/A   Unknown
2:56 PM 30.0 °F 16.9 °F 25.0 °F 82% 30.24 in - North 21.9 mph 31.1 mph N/A   Unknown
3:56 PM 30.0 °F 16.0 °F 25.0 °F 82% 30.26 in - North 25.3 mph 29.9 mph N/A   Unknown
4:56 PM 28.9 °F 14.5 °F 25.0 °F 85% 30.29 in - NNE 25.3 mph 32.2 mph N/A   Unknown
5:56 PM 28.9 °F 14.8 °F 24.1 °F 82% 30.32 in - NNE 24.2 mph 29.9 mph N/A   Unknown
6:56 PM 28.0 °F 14.6 °F 24.1 °F 85% 30.36 in - NNE 20.7 mph 28.8 mph N/A   Unknown
7:56 PM 27.0 °F 12.8 °F 21.9 °F 81% 30.39 in - NNE 21.9 mph 31.1 mph N/A   Unknown
8:56 PM 24.1 °F 9.4 °F 21.0 °F 88% 30.43 in - North 20.7 mph 28.8 mph N/A   Unknown
9:56 PM 23.0 °F 6.6 °F 19.0 °F 85% 30.45 in - North 25.3 mph - N/A   Unknown
10:56 PM 21.0 °F 4.3 °F 17.1 °F 85% 30.48 in - North 24.2 mph 33.4 mph N/A   Unknown
11:56 PM 19.9 °F 3.5 °F 15.1 °F 81% 30.51 in - North 21.9 mph 28.8 mph N/A   Unknown